Regional Weather Roundup
Issued by NWS

Home | Current Version | Previous Version | Text Only | Print | Product List | Glossary Off
Versions: 1 2 3 4 5 6 7 8 9 10 11 12 13 14 15 16 17 18 19 20 21 22 23 24 25 26 27 28 29 30 31 32 33 34 35 36 37 38 39 40 41 42 43 44 45 46 47 48 49 50

000
ASUS45 KBOU 190507
RWRCO

WEATHER ROUNDUP FOR COLORADO
NATIONAL WEATHER SERVICE DENVER/BOULDER CO
1100 PM MDT FRI AUG 18 2017

NOTE: "FAIR" INDICATES FEW OR NO CLOUDS BELOW 12000 FEET WITH NO
SIGNIFICANT WEATHER AND/OR OBSTRUCTIONS TO VISIBILITY.

COZ001>005-013-030-031-190600-
...NORTHWEST COLORADO...

CITY           SKY/WX    TMP DP  RH WIND       PRES   REMARKS
CRAIG          FAIR      55  39  54 E5        30.21S
HAYDEN         FAIR      64  30  27 SE5       30.26S
MEEKER         FAIR      61  36  39 E6        30.24S
RABBIT EARS PA FAIR      55  28  35 W5        30.55F
STEAMBOAT SPGS FAIR      58  36  43 CALM      30.27S
WALDEN         FAIR      45  34  65 SE9       30.37F
$$

COZ006>008-011-190600-
...WEST CENTRAL VALLEYS...

CITY           SKY/WX    TMP DP  RH WIND       PRES   REMARKS
GRAND JUNCTION FAIR      72  30  21 E8        30.09S
MONTROSE       FAIR      67  41  38 SE10      30.22R
EAGLE          FAIR      63  33  32 SE7       30.28R
RIFLE          FAIR      68  30  24 SE5       30.17R
DELTA          FAIR      73  34  23 CALM      30.15S
NUCLA          NOT AVBL
$$

COZ017>023-064>068-190600-
...SOUTHWEST COLORADO...

CITY           SKY/WX    TMP DP  RH WIND       PRES   REMARKS
DURANGO        FAIR      61  38  42 NW6       30.27R
CORTEZ         FAIR      61  35  37 NE7       30.21R
PAGOSA SPRINGS FAIR      58  32  37 CALM      30.36S
TELLURIDE      FAIR      58  35  41 SE6       30.49S
WOLF CREEK PAS FAIR      52  30  43 CALM      30.74F
$$

COZ009-010-012-014-032>034-037-058>063-190600-
...CENTRAL COLORADO...

CITY           SKY/WX    TMP DP  RH WIND       PRES   REMARKS
ASPEN          FAIR      57  37  47 SW9       30.36R
BUENA VISTA    FAIR      60  31  34 W7        30.38R
COPPER MTN     FAIR      54  30  40 W9        30.69S
BERTHOUD PASS  FAIR      45  39  81 NW17      30.71S
COTTONWOOD PAS FAIR      63  21  20 SW6       30.53S
GUNNISON       FAIR      54  40  59 CALM      30.38R
KREMMLING      FAIR      61  37  41 CALM      30.33S
LEADVILLE      FAIR      48  32  53 E3        30.51S
MONARCH PASS   CLOUDY    52  28  40 W15       30.79S
SALIDA         FAIR      64  35  34 SW5       30.42R
SUNLIGHT       FAIR      55  21  26 NW5       30.61F
WILKERSON PASS FAIR      52  32  46 SW8       30.66F
$$

COZ069>075-190600-
...SAN LUIS VALLEY/SANGRE DE CRISTO MOUNTAINS...

CITY           SKY/WX    TMP DP  RH WIND       PRES   REMARKS
ALAMOSA        FAIR      62  39  42 N7        30.32S
DEL NORTE      FAIR      60  37  42 SW13      30.37F
LA VETA PASS   NOT AVBL
SAGUACHE       FAIR      66  36  32 N9        30.36S
$$

COZ035-036-038>040-190600-
...NORTHERN COLORADO FRONT RANGE...

CITY           SKY/WX    TMP DP  RH WIND       PRES   REMARKS
DENVER INTL AP FAIR      66  48  52 S9        30.16R
DMNS CITY PARK   N/A     68  49  50 SE6       30.14S
AURORA         PTCLDY    70  47  44 S15       30.17S
FRONT RANGE AP FAIR      70  50  49 SE10      30.17S
ERIE MUNI ARPT FAIR      65  47  52 CALM      30.18F
BOULDER MUN AP FAIR      72  43  35 W5        30.14S
CENTENNIAL     FAIR      70  44  39 S12       30.19S
BROOMFIELD     NOT AVBL
FORT COLLINS   FAIR      70  52  52 SW3       30.13F
LONGMONT       FAIR      67  50  53 W7        30.14F
$$

COZ041-046-047-076>085-087-088-190600-
...PIKES PEAK/PALMER DIVIDE AND SOUTHERN FOOTHILLS...

CITY           SKY/WX    TMP DP  RH WIND       PRES   REMARKS
COLO. SPRINGS  FAIR      69  45  41 CALM      30.28R
A. F. ACADEMY  FAIR      63  44  49 N3        30.29R
SCHRIEVER AFB  FAIR      63  49  61 E7        30.27R
CHEYENNE MTN   FAIR      70  38  31 S9G20     30.27R
ELLICOTT       NOT AVBL
FALCON         FAIR      63  46  55 S8        30.33R
FORT CARSON    FAIR      70  44  39 W3        30.24R
LIMON          FAIR      59  53  80 CALM      30.20R
MONUMENT HILL  FAIR      61  46  59 S14       30.32S
CANON CITY     CLEAR     72  46  40 N13       30.19S
WALSENBURG     FAIR      70  43  37 S9        30.20S
TRINIDAD       FAIR      69  52  54 W8        30.21S
$$

COZ042>045-048>051-090-091-190600-
...NORTHEAST COLORADO...

CITY           SKY/WX    TMP DP  RH WIND       PRES   REMARKS
GREELEY ARPT   FAIR      69  52  54 CALM      30.12S
AKRON          FAIR      65  49  56 S13       30.13S
BURLINGTON     FAIR      63  56  78 S9        30.13S
WRAY           NOT AVBL
YUMA           FAIR      59  43  55 S6        30.11S
STERLING       FAIR      68  50  52 S7        30.08S
HOLYOKE        FAIR      61  52  72 S8        30.08F
FORT MORGAN    FAIR      65  48  55 E5        30.12R
$$

COZ086-089-092>099-190600-
...SOUTHEAST COLORADO...

CITY           SKY/WX    TMP DP  RH WIND       PRES   REMARKS
PUEBLO         FAIR      68  48  48 E7        30.13R
LA JUNTA       FAIR      70  56  61 E7        30.11R
LAMAR          FAIR      66  59  78 E5        30.08R
SPRINGFIELD      N/A     66  64  93 SW5       30.13S
$$



USA.gov is the U.S. government's official web portal to all federal, state and local government web resources and services.